C/2022 L2 ( ATLAS )

Japanese version
Home page
Updated on December 1, 2023

---------------------------------------------------------------------

* Profile

Discovery Date June 10, 2022
Magnitude 18.4 mag
Discoverer Asteroid Terrestrial-Impact Last Alert System (ATLAS) search program

* Pictures

* Orbital Elements

Epoch 2023 Sept. 13.0 TT = JDT 2460200.5
T 2024 Mar. 12.29241 TT                                 Rudenko
q   2.6925661            (2000.0)            P               Q
z  -0.0005532      Peri.  199.92980     -0.86472402     -0.11279230
 +/-0.0000007      Node    39.24126     -0.28726369     +0.91040260
e   1.0014895      Incl.  129.31474     -0.41198537     -0.39805151
>From 2251 observations 2022 May 20-2023 Sept. 23, mean residual 0".5.

* Finding Charts

* Magnitudes Graph

        m1 = 8.0 + 5 log d + 7.5 log r

---------------------------------------------------------------------

The orbital elements are published on M.P.E.C. 2023-S260.
The charts are made with StellaNavigator Ver.10 (AstroArts).
The magnitudes graphs are made with Comet for Windows.

---------------------------------------------------------------------

Copyright(C) Seiichi Yoshida (comet@aerith.net). All rights reserved.